Welcome to the New NWS' Forecast!
Most changes are behind the scenes, but click here for differences you might notice.

Regional Weather Roundup (RWR)

Issued by Gray - Portland, ME (GYX)

                            
763 
ASUS41 KGYX 150605
RWRGYX
WEATHER ROUNDUP FOR MAINE AND NEW HAMPSHIRE
NATIONAL WEATHER SERVICE GRAY ME
200 AM EDT WED AUG 15 2018

MEZ002-005-006-010-012-015-018-020-021-024-026-027-029-150700-
MAINE
  
CITY           SKY/WX    TMP DP  RH WIND       PRES   REMARKS
PORTLAND       CLOUDY    69  69 100 CALM      29.83F                  
6HR MIN TEMP:  68; 6HR MAX TEMP:  71;                                

SANFORD        CLOUDY    69  68  96 CALM      29.83F FOG              
BAR HARBOR     FOG       68  66  94 CALM      29.85F VSB 1            
WISCASSET      CLOUDY    70  70 100 CALM      29.84F FOG              
6HR MIN TEMP:  69; 6HR MAX TEMP:  70;                                

ROCKLAND       FOG       67  67 100 CALM      29.84F VSB 1/4          
FRYEBURG       CLOUDY    69  69 100 CALM      29.84S                  
6HR MIN TEMP:  67; 6HR MAX TEMP:  73; 6HR PCP:  0.01;                

LEWISTONAUBURN FOG       68  68 100 S3        29.83F VSB 1/2          
AUGUSTA        CLOUDY    69  68  96 SE3       29.83F                  
6HR MIN TEMP:  68; 6HR MAX TEMP:  72; 6HR PCP:  0.01;                

WATERVILLE     CLOUDY    69  68  96 CALM      29.81F                  
BANGOR         FOG       71  70  96 S6        29.83F VSB 3/4          
6HR MIN TEMP:  69; 6HR MAX TEMP:  72;                                

GREENVILLE       N/A     68  67  96 S3        29.84F                  
6HR MIN TEMP:  67; 6HR MAX TEMP:  69;                                

MILLINOCKET    CLOUDY    71  67  87 S5        29.83F                  
6HR MIN TEMP:  71; 6HR MAX TEMP:  74;                                

HOULTON        CLOUDY    70  69  97 S9G16     29.80F                  
6HR MIN TEMP:  70; 6HR MAX TEMP:  73;                                

PRESQUE ISLE   MOCLDY    70  67  90 S6        29.80F                  
6HR MIN TEMP:  70; 6HR MAX TEMP:  74; 6HR PCP: TRACE;                

FRENCHVILLE    CLOUDY    72  67  84 S6        29.78F                  
6HR MIN TEMP:  72; 6HR MAX TEMP:  76; 6HR PCP: TRACE;                

CARIBOU        CLOUDY    72  69  90 S5        29.78F                  
6HR MIN TEMP:  72; 6HR MAX TEMP:  75; 6HR PCP: TRACE;                

$$

NHZ002-005-008-009-011-012-014-150700-
NEW HAMPSHIRE
  
CITY           SKY/WX    TMP DP  RH WIND       PRES   REMARKS
PORTSMOUTH     CLOUDY    70  69  97 CALM      29.81F FOG              
ROCHESTER      CLOUDY    69  69 100 CALM      29.83S FOG              
6HR MIN TEMP:  69; 6HR MAX TEMP:  70;                                

MANCHESTER     NOT AVBL                                               
CONCORD        FAIR      68  67  96 CALM      29.83F                  
6HR MIN TEMP:  68; 6HR MAX TEMP:  73; 6HR PCP: TRACE;                

LACONIA        MOCLDY    66  65  96 CALM      29.84F                  
PLYMOUTH       CLOUDY    66  65  95 CALM      29.84S FOG              
BERLIN         FOG       64  64 100 CALM      29.86S VSB 1/4          
6HR MIN TEMP:  63; 6HR MAX TEMP:  71;                                

WHITEFIELD     FAIR      62  61  96 CALM      29.85F                  
6HR MIN TEMP:  61; 6HR MAX TEMP:  75;                                

JAFFREY        NOT AVBL                                               
LEBANON        CLOUDY    67  63  87 CALM      29.83F                  
6HR MIN TEMP:  66; 6HR MAX TEMP:  74;                                

MT WASHINGTON  MOCLDY    54  48  82 SW3         N/A                   
6HR MIN TEMP:  50; 6HR MAX TEMP:  54;                                

$$

VTZ005-007-008-150700-
VERMONT
  
CITY           SKY/WX    TMP DP  RH WIND       PRES   REMARKS
ST JOHNSBURY     N/A     66  66 100 MISG      29.82F                  
MONTPELIER     FAIR      65  65 100 CALM      29.88F                  
BURLINGTON     FAIR      71  65  81 S5        29.80F                  
$$

MAZ007-012-024-CTZ003-RIZ002-NYZ038-NYZ072-150700-
SOUTHERN NEW ENGLAND AND NY
  
CITY           SKY/WX    TMP DP  RH WIND       PRES   REMARKS
BOSTON         MOCLDY    70  67  90 CALM      29.82F                  
WORCESTER      FAIR      67  67 100 SW6       29.85F FOG              
NANTUCKET      RAIN      71  69  93 S10G20    29.86F FOG              
PROVIDENCE     FAIR      71  68  90 SW5       29.83F                  
HARTFORD       MOCLDY    70  68  93 S5        29.82S                  
ALBANY         CLOUDY    71  66  84 CALM      29.83F                  
NEW YORK CITY  MOCLDY    74  66  76 W9        29.84S                  
$$

ANZ081-ANZ082-ANZ150-NHZ014-MEZ023>029-150700-
COASTAL MARINE OBSERVATIONS
  
STATION/POSITION TIME  TEMP    WIND        PRES    WAVE
                       AIR SEA DIR/SP/G            HT/PER
                 (UTC) (F)     (DEG/KT/KT) (MB)    (FT/S)
MOUNT DESERT ROC 0600   65     150/ 11/ 11 1011.0F
MATINICUS ROCK   0500   67     170/ 14/ 15 1010.1F
ISLE OF SHOALS   0500   68     340/  2/  2 1009.9R
JEFFREYS LEDGE   0536      69                N/A     2/ 6
$$

.............KEY..............
   WCI - WIND CHILL
   TC  - TEMPERATURE IN CELSIUS
   VSB - VISIBILITY IN MILES
   HX  - HEAT INDEX
   FAIR- INDICATES FEW OR NO CLOUDS BELOW 12,000 FT, WITH NO 
         SIGNIFICANT WEATHER AND/OR OBSTRUCTIONS TO VISIBILITY.